sat.trackr.live / text

‹ back to catalog

STARLINK-36398

NORAD 67562 · 2026-016B

PAYLOAD ACTIVE UNKNOWN

§ Identity

Operator
Country
US
Launch date
2026-01-25
Launch site
AFWTR
Launch vehicle
Mass (kg)
RCS (m²)

Purposes: comms

External: N2YO · Heavens-Above · Gunter

§ Orbital elements

Epoch: 2026-09-19T09:19:19.526880Z

Period
93.91 min
Inclination
97.2853°
Eccentricity
0.0000814
Mean motion
15.33453400 rev/d
Perigee alt
465.0 km
Apogee alt
466.1 km
Semi-major
6,843.7 km
B*
4.3801e-4
RAAN
321.1184°
Arg perigee
90.1482°
Mean anomaly
269.9854°
Rev number
3,655

§ Raw data

STARLINK-363981 67562U 26016B   26262.38842045  .00014095  00000+0  43801-3 0  99902 67562  97.2853 321.1184 0000814  90.1482 269.9854 15.33453400 36559

JSON: /api/v1/satellites/67562 · /tle

For live sub-satellite position, see the globe view (requires WebGL).

§ Visibility from observer

Set your observer location to see the next 7 days of passes ≥ 10°. The values pass through the URL so the page stays shareable.

No JS? Fill the form by hand. The geolocation button needs JavaScript.